Flag for French Polynesia Weather past 2 weeks in Gambier Islands, French Polynesia

Now
78 °F

Scattered clouds.


Feels Like: 79 °F
Forecast: 73 / 76 °F
Wind: 5 mph from Northeast

Location: Rikitea

Current Time: Sep 22, 2014 at 3:31:00 PM

Latest Report: Sep 22, 2014 at 2:00 PM


Visibility: 25 mi

Pressure: 30.07 "Hg

Humidity: 76%

Dew point: 69 °F

Location of Gambier IslandsLocation

Historic Weather in Gambier Islands — Graph

°F

Gambier Islands temperature yesterday

Maximum temperature yesterday: 77 °F (at 12:00 PM)
Minimum temperature yesterday: 71 °F (at 2:00 AM)
Average temperature yesterday: 73 °F

Past Weeks' High & Low Weather Summary

 TemperatureHumidityPressure
High79 °F (Sep 15, 11:00 AM)97% (Sep 16, 7:00 AM)30.24 "Hg (Sep 16, 7:00 AM)
Low64 °F (Sep 17, 6:00 AM)58% (Sep 7, 3:00 PM)29.90 "Hg (Sep 15, 2:00 AM)
Average72 °F82%30.09 "Hg
* Reported Sep 7 2:00 PM — Sep 22 2:00 PM, Gambier Islands, Weather by CustomWeather, © 2014

Note: Actual official high and low records may vary slightly from our data, if they occured in-between our weather recording intervals... More about our weather records

Advertising

Gambier Islands weather history for previous 24 hours

 ConditionsComfort  
Time TempWeatherWind HumidityBarometerVisibility
2:00 PM
Sep 22
78 °FScattered clouds.5 mph76%30.07 "Hg25 mi
1:00 PM78 °FScattered clouds.7 mph76%30.09 "Hg25 mi
12:00 PM78 °FScattered clouds.5 mph77%30.12 "Hg19 mi
11:00 AM76 °FMild.7 mph78%30.13 "HgN/A
10:00 AM78 °FWarm.6 mph78%30.14 "HgN/A
9:00 AM77 °FMild.5 mph81%30.15 "HgN/A
8:00 AM75 °FScattered clouds.5 mph80%30.15 "Hg19 mi
7:00 AM72 °FMild.6 mph88%30.13 "HgN/A
6:00 AM71 °FPartly sunny.5 mph91%30.11 "Hg19 mi
5:00 AM71 °FMild.5 mph91%30.10 "HgN/A
4:00 AM71 °FMild.7 mph93%30.08 "HgN/A
3:00 AM71 °FMild.5 mph93%30.09 "HgN/A
2:00 AM71 °FMild.5 mph93%30.09 "HgN/A
1:00 AM72 °FMild.5 mph92%30.10 "HgN/A
12:00 AM72 °FMild.5 mph93%30.12 "HgN/A
11:00 PM
Sep 21
72 °FMild.3 mph90%30.14 "HgN/A
10:00 PM72 °FMild.3 mph90%30.12 "HgN/A
9:00 PM72 °FMild.5 mph90%30.14 "HgN/A
8:00 PM72 °FMild.3 mph89%30.14 "HgN/A
7:00 PM72 °FMild.3 mph89%30.13 "HgN/A
6:00 PM73 °FMild.3 mph86%30.10 "HgN/A
5:00 PM73 °FOvercast.5 mph85%30.07 "Hg19 mi
4:00 PM74 °FPartly sunny.6 mph83%30.05 "Hg19 mi
3:00 PM75 °FOvercast.6 mph82%30.05 "Hg19 mi
Weather by CustomWeather, © 2014

See weather overviewHow to use our weather pages